This is the latest recevied weather packets stored in our database for station/object M0HZQ-1. If no packets are shown the sender has not sent any weather packets the latest 10 day(s).
| Time | Temp. | Humidity | Pressure | Rain* | Wind** | Luminosity | Snow |
|---|---|---|---|---|---|---|---|
| 1777701509 | 16.11° C | 58% | 1018.9 hPa | 0 mm | - | - | - |
| 1777700309 | 15.56° C | 59% | 1018.8 hPa | 0 mm | - | - | - |
| 1777699321 | 15.56° C | 59% | 1018.9 hPa | 0 mm | - | - | - |
| 1777698247 | 15° C | 60% | 1018.7 hPa | 0 mm | - | - | - |
| 1777697209 | 15° C | 60% | 1018.9 hPa | 0 mm | - | - | - |
| 1777696149 | 14.44° C | 60% | 1018.8 hPa | 0 mm | - | - | - |
| 1777695034 | 14.44° C | 60% | 1018.7 hPa | 0 mm | - | - | - |
| 1777693949 | 14.44° C | 60% | 1018.9 hPa | 0 mm | - | - | - |
| 1777692794 | 14.44° C | 59% | 1019 hPa | 0 mm | - | - | - |
| 1777691704 | 15° C | 59% | 1019.2 hPa | 0 mm | - | - | - |
| 1777690600 | 15° C | 58% | 1019.1 hPa | 0 mm | - | - | - |
| 1777689417 | 15° C | 58% | 1019.1 hPa | 0 mm | - | - | - |
| 1777688364 | 15.56° C | 57% | 1019.1 hPa | 0 mm | - | - | - |
| 1777687342 | 15.56° C | 57% | 1019.2 hPa | 0 mm | - | - | - |
| 1777686334 | 15.56° C | 56% | 1019.1 hPa | 0 mm | - | - | - |
| 1777685269 | 16.11° C | 56% | 1019.4 hPa | 0 mm | - | - | - |
| 1777684095 | 16.11° C | 55% | 1019.6 hPa | 0 mm | - | - | - |
| 1777682949 | 16.11° C | 54% | 1019.8 hPa | 0 mm | - | - | - |
| 1777681937 | 16.67° C | 54% | 1020.1 hPa | 0 mm | - | - | - |
| 1777680739 | 16.67° C | 53% | 1020.2 hPa | 0 mm | - | - | - |
| 1777679644 | 17.22° C | 53% | 1020.3 hPa | 0 mm | - | - | - |
| 1777678460 | 17.78° C | 52% | 1020.3 hPa | 0 mm | - | - | - |
| 1777677294 | 18.33° C | 52% | 1020.3 hPa | 0 mm | - | - | - |
| 1777676318 | 18.33° C | 51% | 1020.3 hPa | 0 mm | - | - | - |
| 1777675274 | 18.89° C | 50% | 1020.3 hPa | 0 mm | - | - | - |
* Rain latest hour (hover to see other rain measurements)
** Current wind speed in m/s (hover to see current wind gust speed)